Location: Saginaw
(43.4190°N, 83.9510°W)
Time: 01:10:07
(UTC-04:00)

Envisat - Visible Passes

Search period start: 20 July 2018 00:00
Search period end: 30 July 2018 00:00
Orbit: 764 x 766 km, 98.2° (Epoch: 19 July)

Date Brightness Start Highest point End Pass type
(mag) Time Alt. Az. Time Alt. Az. Time Alt. Az.
21 Jul 5.7 22:14:01 10° WSW 22:16:35 14° W 22:19:10 10° WNW visible
22 Jul 4.9 21:35:04 10° SSW 21:39:29 30° W 21:43:57 10° NW visible
24 Jul 5.6 22:01:57 10° SW 22:05:18 18° W 22:08:40 10° NW visible
27 Jul 5.4 21:50:07 10° SW 21:54:01 22° W 21:57:56 10° NW visible
29 Jul 5.8 22:17:45 10° WSW 22:19:53 12° W 22:22:01 10° WNW visible
